STARLINK-32536, 61925

Orbit data source: Space-Track

STARLINK-32536, 61925 is a payload satellite owned by SpaceX/Seattle (US) in LEO that was launched on Mon, 11 Nov 2024 UTC via an FALCON 9 launch vehicle from the Air Force Eastern Test Range (AFETR). Payload-class satellites include a variety of spacecraft equipped with specific instruments for various scientific and technological missions. These include communications satellites like Starlink; space stations such as the ISS; scientific satellites like the Hubble; Earth observation satellites from companies like Planet Labs, Umbra, and HawkEye 360; GPS; miniature CubeSats for education and research; and military/defense satellites.

Loading next visibility...
Identifier
61925, 2024-207P
Orbit
LEO
Country
Flag of USUS
Related business
Manufacturer
SpaceX/Seattle
Mission
Operational Commercial Communications
Bus & Motor
STARLINK V2M, Unknown motor
Mass
730 kg wet, ~700 kg dry
Launch date (UTC)
2024-11-11 (2 years ago)
Launch vehicle
FALCON 9
Launch site
Air Force Eastern Test Range (AFETR)
Object type
Payload
Rocket body
Debris
Shape & HBR
Box + 2 Pan, 17.7 m
Radar Cross Section
33.884 m², Large (>1 m²)

Expand to show TLE details & history
Last TLE update: 18 hours ago

TLE from 18 hours ago
0 STARLINK-32536
1 61925U 24207P   26145.17496681  .00014405  00000-0  53171-3 0  9992
2 61925  42.9989 213.7569 0000899 285.7795  74.2957 15.27596554 86375
Epoch: 2026-05-25T04:11Z
TLE epoch observation values (Epoch: 2026-05-25T04:11:57.132Z)
Latitude
-0.00004°
Longitude
-91.99773°
Altitude
482.608 km
Speed
7.626 km/s
True Right ascension
14h 15m 01s
True Declination
0° 00' 00"
Sunlit
Object was in full shadow at epoch
Visualization orbit readout
Latitude
Unknown
Longitude
Unknown
Altitude
Unknown
Speed
Unknown
Apparent Right ascension
Unknown
Apparent Declination
Unknown
Sunlit
N/A
Visualization observer readout
Local Sidereal Time
07:15:43
Azimuth
Unknown
Elevation
Unknown
Doppler factor
Unknown
Orbital elements
Apogee altitude
485.562 km
Perigee altitude
484.328 km
Semi-major axis
6,863.082 km
Eccentricity
0.00009
Inclination
42.9989°
RAAN
213.7569°
Arg. of periapsis
285.7795°
True anomaly
74.30562°
Mean anomaly
74.2957°
Eccentric anomaly
74.30066°
Mean motion
3.81737 °/min
Orbital period
94.31 mins
BSTAR
0.00053171
Loading maneuver chart data...
Computing Atmospheric mass density...
Loading historical data...
Loading historical data...
Loading historical data...
Loading historical data...
Loading historical data...
Loading historical data...
Loading historical data...

Documentation

Showing up to 5 results
|